Date String (YYYY-MM-DD hh:mm:ss) UTC,Instrument flags,absolute air pressure of the measurement (hPa),sample flow rate (lpm),inlet stack bypass flow (lpm),air temperature of the measurement (°C),ambient temperature measured by the external sensor (°C),aerosol sample conditioner tube jacket temperature (°C),OPC LED temperature (°C),internal box temperature (°C),relative humidity of the measurement (%),span deviation,mass concentration of particles derived from Lorenz-Mie calculation of OPC scattering (μg/m³),mass concentration of particles derived from Lorenz-Mie calculation of OPC scattering (μg/m³),mass concentration of particles derived from Lorenz-Mie calculation of OPC scattering (μg/m³)
DateTimeUTC,F1_M11,P_M11,Q1_M11,Q2_M11,T1_M11,T2_M11,T3_M11,T4_M11,T5_M11,U1_M11,ZSPAN_M11,X0_M11,X2_M11,X1_M11
2024-03-08 08:00:00,SystemResetWarning,0828.0,5.01,000.00,019.0,018.4,000.0,027.5,020.8,20.1,0000.0,0007.63,0005.48,0005.34
2024-03-08 08:01:00,SystemResetWarning,0828.0,5.00,000.00,019.0,018.3,000.0,027.5,020.7,20.1,0000.0,0007.64,0005.35,0005.20
2024-03-08 08:02:00,SystemResetWarning,0828.0,5.01,000.00,018.9,018.2,000.0,027.5,020.7,20.2,0000.0,0007.52,0005.23,0005.09
2024-03-08 08:03:00,SystemResetWarning,0828.0,5.00,000.00,018.9,018.1,000.0,027.5,020.6,20.2,0000.0,0007.41,0005.11,0004.97
2024-03-08 08:04:00,SystemResetWarning,0828.0,5.00,000.00,018.9,018.0,000.0,027.5,020.6,20.3,0000.0,0007.35,0005.03,0004.88
2024-03-08 08:05:00,SystemResetWarning,0828.1,4.99,000.00,018.8,017.9,000.0,027.4,020.5,20.3,0000.0,0007.33,0004.97,0004.81
2024-03-08 08:06:00,SystemResetWarning,0828.1,5.00,000.00,018.8,017.9,000.0,027.4,020.5,20.4,0000.0,0007.19,0004.86,0004.71
2024-03-08 08:07:00,SystemResetWarning,0828.1,5.00,000.00,018.8,017.8,000.0,027.4,020.5,20.4,0000.0,0007.07,0004.80,0004.65
2024-03-08 08:08:00,SystemResetWarning,0828.1,5.00,000.00,018.7,017.8,000.0,027.4,020.4,20.4,0000.0,0006.96,0004.73,0004.58
2024-03-08 08:09:00,SystemResetWarning,0828.1,5.00,000.00,018.7,017.7,000.0,027.4,020.4,20.4,0000.0,0006.85,0004.71,0004.58
2024-03-08 08:10:00,SystemResetWarning,0828.1,5.00,000.00,018.7,017.7,000.0,027.4,020.4,20.4,0000.0,0006.88,0004.71,0004.56
2024-03-08 08:11:00,SystemResetWarning,0828.1,4.99,000.00,018.7,017.7,000.0,027.4,020.4,20.5,0000.0,0006.89,0004.74,0004.59
2024-03-08 08:12:00,SystemResetWarning,0828.1,5.01,000.00,018.6,017.7,000.0,027.3,020.3,20.5,0000.0,0006.64,0004.77,0004.63
2024-03-08 08:13:00,SystemResetWarning,0828.1,5.01,000.00,018.6,017.6,000.0,027.3,020.3,20.5,0000.0,0006.66,0004.80,0004.66
2024-03-08 08:14:00,SystemResetWarning,0828.1,5.00,000.00,018.6,017.6,000.0,027.3,020.3,20.6,0000.0,0006.74,0004.81,0004.68
2024-03-08 08:15:00,SystemResetWarning,0828.1,4.99,000.00,018.6,017.6,000.0,027.3,020.3,20.6,0000.0,0006.85,0004.82,0004.70
2024-03-08 08:16:00,SystemResetWarning,0828.1,5.00,000.00,018.6,017.9,000.0,027.3,020.4,20.6,0000.0,0007.17,0004.82,0004.71
2024-03-08 08:17:00,SystemResetWarning,0828.1,5.01,000.00,018.8,018.7,000.0,027.4,020.9,20.4,0000.0,0007.15,0004.83,0004.73
2024-03-08 08:18:00,SystemResetWarning,0828.1,5.01,000.00,019.0,019.2,000.0,027.5,021.2,20.2,0000.0,0007.28,0004.86,0004.75
2024-03-08 08:19:00,SystemResetWarning,0828.0,4.98,000.00,019.0,019.1,000.0,027.4,021.1,20.1,0000.0,0007.39,0004.89,0004.77
2024-03-08 08:20:00,SystemResetWarning,0828.0,5.01,000.00,019.0,018.9,000.0,027.4,021.0,20.1,0000.0,0007.46,0004.92,0004.78
2024-03-08 08:21:00,SystemResetWarning,0828.1,5.01,000.00,019.0,018.7,000.0,027.4,020.9,20.1,0000.0,0007.43,0004.91,0004.78
2024-03-08 08:22:00,SystemResetWarning,0828.0,5.00,000.00,019.0,018.5,000.0,027.4,020.8,20.2,0000.0,0007.43,0004.90,0004.77
2024-03-08 08:23:00,SystemResetWarning,0828.1,5.00,000.00,018.9,018.4,000.0,027.4,020.8,20.2,0000.0,0007.37,0004.85,0004.73
2024-03-08 08:24:00,SystemResetWarning,0828.1,4.99,000.00,018.9,018.3,000.0,027.4,020.7,20.3,0000.0,0007.34,0004.79,0004.68
2024-03-08 08:25:00,SystemResetWarning,0828.1,4.99,000.00,018.9,018.2,000.0,027.4,020.7,20.3,0000.0,0007.22,0004.73,0004.61
2024-03-08 08:26:00,SystemResetWarning,0828.1,5.00,000.00,018.9,018.1,000.0,027.4,020.6,20.4,0000.0,0007.06,0004.69,0004.55
2024-03-08 08:27:00,SystemResetWarning,0828.0,5.01,000.00,018.8,018.0,000.0,027.4,020.6,20.4,0000.0,0006.65,0004.63,0004.49
2024-03-08 08:28:00,SystemResetWarning,0828.1,5.00,000.00,018.8,018.0,000.0,027.4,020.5,20.5,0000.0,0006.63,0004.58,0004.42
2024-03-08 08:29:00,SystemResetWarning,0828.1,5.00,000.00,018.8,017.9,000.0,027.4,020.5,20.5,0000.0,0006.53,0004.54,0004.37
2024-03-08 08:30:00,SystemResetWarning,0828.1,4.99,000.00,018.8,017.9,000.0,027.4,020.5,20.5,0000.0,0006.31,0004.48,0004.33
2024-03-08 08:31:00,SystemResetWarning,0828.0,5.00,000.00,018.7,017.8,000.0,027.4,020.4,20.6,0000.0,0006.17,0004.43,0004.29
2024-03-08 08:32:00,SystemResetWarning,0828.1,5.00,000.00,018.7,017.8,000.0,027.3,020.4,20.6,0000.0,0006.10,0004.39,0004.25
2024-03-08 08:33:00,SystemResetWarning,0828.1,5.01,000.00,018.7,017.7,000.0,027.3,020.4,20.7,0000.0,0005.97,0004.34,0004.21
2024-03-08 08:34:00,SystemResetWarning,0828.1,5.01,000.00,018.7,017.7,000.0,027.3,020.4,20.7,0000.0,0005.85,0004.30,0004.18
2024-03-08 08:35:00,SystemResetWarning,0828.1,5.00,000.00,018.6,017.7,000.0,027.3,020.3,20.7,0000.0,0005.83,0004.29,0004.16
2024-03-08 08:36:00,SystemResetWarning,0828.1,5.00,000.00,018.6,017.6,000.0,027.3,020.3,20.8,0000.0,0005.83,0004.29,0004.16
2024-03-08 08:37:00,SystemResetWarning,0828.1,5.00,000.00,018.6,017.6,000.0,027.3,020.3,20.8,0000.0,0005.73,0004.27,0004.16
2024-03-08 08:38:00,SystemResetWarning,0828.1,5.00,000.00,018.5,017.6,000.0,027.3,020.3,20.8,0000.0,0005.66,0004.26,0004.16
2024-03-08 08:39:00,SystemResetWarning,0828.1,4.99,000.00,018.5,017.6,000.0,027.2,020.3,20.9,0000.0,0005.56,0004.24,0004.16
2024-03-08 08:40:00,SystemResetWarning,0828.0,5.00,000.00,018.5,017.6,000.0,027.2,020.3,20.9,0000.0,0005.56,0004.25,0004.16
2024-03-08 08:41:00,SystemResetWarning,0828.1,5.00,000.00,018.5,017.6,000.0,027.2,020.2,20.9,0000.0,0005.56,0004.25,0004.17
2024-03-08 08:42:00,SystemResetWarning,0828.1,5.00,000.00,018.5,017.7,000.0,027.3,020.3,21.0,0000.0,0006.27,0004.26,0004.17
2024-03-08 08:43:00,SystemResetWarning,0828.2,5.01,000.00,018.6,018.5,000.0,027.4,020.8,20.8,0000.0,0006.57,0004.27,0004.19
2024-03-08 08:44:00,SystemResetWarning,0828.2,5.00,000.00,018.9,019.1,000.0,027.4,021.1,20.5,0000.0,0006.63,0004.29,0004.21
2024-03-08 08:45:00,SystemResetWarning,0828.1,5.00,000.00,018.9,019.0,000.0,027.4,021.1,20.4,0000.0,0006.74,0004.32,0004.22
2024-03-08 08:46:00,SystemResetWarning,0828.1,4.99,000.00,018.9,018.9,000.0,027.3,020.9,20.4,0000.0,0006.73,0004.32,0004.22
2024-03-08 08:47:00,SystemResetWarning,0828.1,5.01,000.00,018.9,018.7,000.0,027.3,020.8,20.4,0000.0,0006.70,0004.32,0004.22
2024-03-08 08:48:00,SystemResetWarning,0828.1,5.00,000.00,018.9,018.5,000.0,027.3,020.8,20.4,0000.0,0006.67,0004.31,0004.22
2024-03-08 08:49:00,SystemResetWarning,0828.1,5.01,000.00,018.9,018.4,000.0,027.3,020.7,20.4,0000.0,0006.68,0004.32,0004.23
2024-03-08 08:50:00,SystemResetWarning,0828.1,5.00,000.00,018.8,018.3,000.0,027.3,020.6,20.5,0000.0,0006.81,0004.34,0004.23
2024-03-08 08:51:00,SystemResetWarning,0828.1,4.99,000.00,018.8,018.2,000.0,027.3,020.6,20.5,0000.0,0006.80,0004.34,0004.24
2024-03-08 08:52:00,SystemResetWarning,0828.1,5.00,000.00,018.8,018.1,000.0,027.3,020.6,20.5,0000.0,0006.82,0004.34,0004.23
2024-03-08 08:53:00,SystemResetWarning,0828.1,4.99,000.00,018.8,018.0,000.0,027.3,020.5,20.5,0000.0,0006.35,0004.35,0004.23
2024-03-08 08:54:00,SystemResetWarning,0828.1,5.00,000.00,018.7,017.9,000.0,027.3,020.5,20.6,0000.0,0005.82,0004.33,0004.21
2024-03-08 08:55:00,SystemResetWarning,0828.2,5.00,000.00,018.7,017.9,000.0,027.3,020.5,20.6,0000.0,0005.82,0004.32,0004.19
2024-03-08 08:56:00,SystemResetWarning,0828.2,5.00,000.00,018.7,017.8,000.0,027.3,020.4,20.6,0000.0,0005.72,0004.28,0004.18
2024-03-08 08:57:00,SystemResetWarning,0828.2,5.01,000.00,018.7,017.8,000.0,027.3,020.4,20.6,0000.0,0005.65,0004.26,0004.16
2024-03-08 08:58:00,SystemResetWarning,0828.2,5.01,000.00,018.6,017.7,000.0,027.3,020.4,20.6,0000.0,0005.65,0004.26,0004.15
2024-03-08 08:59:00,SystemResetWarning,0828.2,5.00,000.00,018.6,017.7,000.0,027.3,020.3,20.7,0000.0,0005.70,0004.27,0004.16
